Skip Page Navigation
NASA JPL Caltech
NASA Logo - Jet Propulsion Laboratory + View the NASA Portal
+ Near-Earth Object (NEO) Program
Search JPL
JPL Home Earth Solar System Stars & Galaxies Technology
JPL Solar System Dynamics
BODIES ORBITS EPHEMERIDES TOOLS PHYSICAL DATA DISCOVERY FAQ SITE MAP
JPL Small-Body Database Browser
Search: [ help ]  
55755 Blythe (1991 TB15)
Classification: Main-belt Asteroid          SPK-ID: 2055755
Ephemeris | Orbit Diagram | Orbital Elements | Physical Parameters | Discovery Circumstances ]

[ hide orbit diagram ]
Orbit Diagram
Note: Make sure you have Java enabled on your browser to see the applet. This applet is provided as a 3D orbit visualization tool. The applet was implemented using 2-body methods, and hence should not be used for determining accurate long-term trajectories (over several years or decades) or planetary encounter circumstances. For accurate long-term ephemerides, please instead use our Horizons system.
Orbit Viewer

Additional Notes: the orbits shown in the applet are color coded. The planets are white lines, and the asteroid/comet is a blue line. The bright white line indicates the portion of the orbit that is above the ecliptic plane, and the darker portion is below the ecliptic plane. Likewise for the asteroid/comet orbit, the light blue indicates the portion above the ecliptic plane, and the dark blue the portion below the ecliptic plane.

Orbit Viewer applet originally written and kindly provided by Osamu Ajiki (AstroArts), and further modified by Ron Baalke (JPL).


Orbital Elements at Epoch 2456400.5 (2013-Apr-18.0) TDB
Reference: MPO244642 (heliocentric ecliptic J2000)
 Element Value Uncertainty (1-sigma)   Units 
e 0.1590960 n/a  
a 2.3490779 n/a AU
q 1.9753490 n/a AU
i 3.73295 n/a deg
node 66.58745 n/a deg
peri 349.62898 n/a deg
M 334.99145 n/a deg
tp 2456491.8546329
(2013-Jul-18.35463290)
n/a JED
period 1315.0569639
3.60
n/a
n/a
d
yr
n 0.27375240 n/a deg/d
Q 2.7228068 n/a AU
  Orbit Determination Parameters
   # obs. used (total)      228  
   first obs. used      1991-??-??  
   last obs. used      2012-11-02  
   # oppositions      10  
   planetary ephem.      DE403  
   condition code      0  
   fit RMS      0.48  
   data source      MPC:mpn  
   producer      MPCLINUX  

Additional Information
 T_jup = 3.539 

Ephemeris | Orbit Diagram | Orbital Elements | Physical Parameters | Discovery Circumstances ]

Physical Parameter Table
Parameter Symbol Value Units Sigma Reference Notes
absolute magnitude H 16.5 mag n/a MPO244642  

55755 Blythe           Discovered 1991 Oct. 6 by A. Lowe at Palomar.
Blythe Andra Lowe, a professional geologist, is the wife of the discoverer.
NOTE: some special characters may not display properly (any characters within {} are an attempt to place the proper accent above a character)
Reference: 20030614/MPCPages.arcLast Updated: 2005-04-26

Alternate Designations
 1991 TB15 = 1991 VY8 = 1998 SO90 
Ephemeris | Orbit Diagram | Orbital Elements | Physical Parameters | Discovery Circumstances ]
ABOUT SSD CREDITS/AWARDS PRIVACY/COPYRIGHT GLOSSARY LINKS
FirstGov 2013-Jun-19 01:40 UT
(server date/time)  
NASA Home Page
Site Manager:   Donald K. Yeomans
Webmaster  Alan B. Chamberlin